This is the latest recevied weather packets stored in our database for station/object DG6YGE-6. If no packets are shown the sender has not sent any weather packets the latest 10 day(s).
| Time | Temp. | Humidity | Pressure | Rain* | Wind** | Luminosity | Snow |
|---|---|---|---|---|---|---|---|
| 1777096751 | 5° C | 84% | 1018.2 hPa | 0 mm | - | 76 W/m² | - |
| 1777096151 | 5° C | 85% | 1018.1 hPa | 0 mm | - | 70 W/m² | - |
| 1777095552 | 5° C | 85% | 1018.1 hPa | 0 mm | - | 51 W/m² | - |
| 1777094951 | 5° C | 86% | 1017.9 hPa | 0 mm | - | 41 W/m² | - |
| 1777094352 | 5° C | 86% | 1017.9 hPa | 0 mm | - | 35 W/m² | - |
| 1777093751 | 5° C | 86% | 1017.8 hPa | 0 mm | - | 31 W/m² | - |
| 1777093151 | 5° C | 86% | 1017.9 hPa | 0 mm | - | 20 W/m² | - |
| 1777092551 | 5° C | 85% | 1017.9 hPa | 0 mm | - | 14 W/m² | - |
| 1777091951 | 5° C | 85% | 1017.8 hPa | 0 mm | - | 9 W/m² | - |
| 1777091351 | 5° C | 85% | 1017.7 hPa | 0 mm | - | 6 W/m² | - |
| 1777090752 | 5° C | 86% | 1017.6 hPa | 0 mm | - | 0 W/m² | - |
| 1777090151 | 5° C | 86% | 1017.5 hPa | 0 mm | - | 0 W/m² | - |
| 1777089551 | 5° C | 86% | 1017.6 hPa | 0 mm | - | 0 W/m² | - |
| 1777088951 | 5° C | 86% | 1017.7 hPa | 0 mm | - | 0 W/m² | - |
| 1777088351 | 5° C | 86% | 1017.7 hPa | 0 mm | - | 0 W/m² | - |
| 1777087751 | 5° C | 86% | 1017.8 hPa | 0 mm | - | 0 W/m² | - |
| 1777087152 | 5° C | 86% | 1017.8 hPa | 0 mm | - | 0 W/m² | - |
| 1777086551 | 5° C | 86% | 1017.9 hPa | 0 mm | - | 0 W/m² | - |
| 1777085951 | 5.56° C | 86% | 1018 hPa | 0 mm | - | 0 W/m² | - |
| 1777085351 | 5.56° C | 86% | 1018.1 hPa | 0 mm | - | 0 W/m² | - |
| 1777084751 | 5.56° C | 87% | 1018.2 hPa | 0 mm | - | 0 W/m² | - |
| 1777084151 | 5.56° C | 87% | 1018.1 hPa | 0 mm | - | 0 W/m² | - |
| 1777083551 | 5.56° C | 86% | 1018.1 hPa | 0 mm | - | 0 W/m² | - |
| 1777082951 | 5.56° C | 87% | 1018.1 hPa | 0 mm | - | 0 W/m² | - |
| 1777082351 | 5.56° C | 86% | 1018 hPa | 0 mm | - | 0 W/m² | - |
* Rain latest hour (hover to see other rain measurements)
** Current wind speed in m/s (hover to see current wind gust speed)